Lid_Strength_Index
1 1 2 1 1 1 1 2 2 1 2 1 1 2 2 2 2 2 3 3 2 0 1 4 4 4 4 4 3 2 7 9 8 7 7 5 6 5 4 5 4 3 3 2 2
1 1 1 1 1 1 1 1 1 2 2 2 1 1 2 1 2 4 1 0 -1 -0 3 5 6 5 5 5 4 5 7 7 5 5 6 5 5 6 7 5 4 3 2 3 3
1 1 1 1 2 1 1 1 1 1 2 2 2 1 1 1 3 5 -1 -0 -1 -0 2 3 4 5 7 5 5 5 7 5 5 4 4 5 5 4 7 8 4 4 4 3 4
1 1 1 1 2 2 1 1 1 1 2 2 2 2 1 1 7 2 -1 -1 -1 1 3 4 5 7 7 8 5 7 6 5 4 4 5 6 5 7 7 8 6 4 4 5 5
1 1 2 2 2 2 2 2 2 2 2 2 2 2 1 5 5 -0 -1 -1 1 3 4 5 6 7 8 8 7 8 7 6 6 6 6 6 8 8 7 6 7 5 5 5 5
2 2 2 2 2 2 2 2 2 2 3 3 2 2 2 8 2 -0 -1 0 2 3 5 5 6 5 7 8 8 7 7 7 6 6 6 7 7 8 7 7 7 7 6 5 5
2 2 2 2 2 2 2 2 3 3 3 2 2 1 4 6 2 1 -0 1 2 3 5 4 5 6 6 7 7 7 9 7 7 6 7 6 8 8 6 7 7 8 7 5 5
2 2 2 2 2 2 3 2 3 3 3 3 2 2 6 3 1 1 1 2 1 2 3 3 4 5 6 6 7 8 8 10 7 8 7 7 10 8 7 8 8 8 8 6 5
3 2 2 3 2 2 2 2 2 2 2 2 2 3 6 1 3 2 1 4 4 3 3 3 4 5 6 8 9 9 10 10 9 7 7 7 9 7 6 7 8 8 8 7 6
2 2 2 2 3 2 3 2 1 1 1 1 2 5 4 5 3 2 2 3 5 5 5 5 5 7 7 8 11 10 11 10 10 8 8 8 8 6 6 6 7 6 7 8 7
3 3 2 2 2 3 2 1 3 4 2 5 6 6 5 4 2 4 3 4 4 5 8 6 8 9 8 8 8 9 10 10 9 8 9 9 8 7 6 6 6 6 6 7 7
3 3 3 2 3 2 1 3 4 3 6 4 4 5 4 4 6 5 4 7 7 8 7 8 9 8 8 8 9 9 10 10 9 8 9 9 9 8 7 6 6 5 5 5 6
4 3 3 3 2 2 2 3 1 2 5 5 4 5 5 4 7 7 5 6 8 9 8 9 9 8 8 9 9 9 10 10 10 9 8 9 9 8 7 7 6 6 5 5 5
4 4 3 3 3 1 2 1 1 2 8 8 6 5 4 4 7 5 4 6 7 9 8 8 7 8 9 9 9 10 9 9 10 10 12 9 13 9 7 7 7 6 5 5 5
5 4 4 4 1 2 2 1 1 2 14 7 6 2 4 6 6 6 4 6 8 8 8 9 9 9 9 9 8 9 8 9 9 10 10 10 12 9 8 8 7 7 6 5 4
5 4 4 2 1 2 1 1 1 10 15 9 6 7 6 6 6 5 5 5 6 8 8 8 6 7 7 7 8 8 9 8 8 9 13 10 11 10 9 8 7 6 5 5 4
5 5 4 3 3 0 1 2 10 13 7 9 9 7 7 7 6 6 6 7 9 11 10 9 9 8 7 9 7 8 9 12 13 13 13 10 12 10 7 6 6 6 5 5 4
6 6 4 2 1 0 2 6 13 10 9 7 7 7 9 7 7 7 7 8 7 8 10 11 12 9 6 7 8 8 9 12 16 15 13 10 12 9 6 5 5 4 4 4 4
6 2 2 1 2 2 5 10 10 9 8 8 7 9 8 8 8 8 8 8 7 7 10 11 12 8 8 6 7 9 11 8 11 11 13 11 9 7 6 6 5 5 5 4 3
4 3 3 3 2 3 7 10 8 7 7 7 10 9 10 9 9 9 9 8 8 6 6 8 13 8 7 7 6 7 7 12 11 16 16 12 11 11 8 7 6 6 5 4 3
4 6 4 3 3 6 9 9 8 6 6 8 9 9 8 9 8 9 9 8 7 7 6 7 9 9 8 9 9 9 10 9 10 12 16 16 12 7 7 6 6 5 5 4 3
5 8 3 3 8 7 9 9 9 7 6 7 7 7 8 8 9 9 9 8 6 6 8 7 9 12 10 7 6 7 9 9 14 14 12 13 13 6 6 6 5 5 4 4 3
8 6 3 4 10 11 10 10 8 8 8 8 8 7 7 8 10 8 8 6 6 6 8 7 10 14 12 9 8 9 8 8 9 10 14 16 13 6 5 5 5 5 4 4 3
9 10 8 6 8 11 12 11 10 7 7 7 7 7 7 8 7 9 9 7 6 6 6 6 10 12 14 11 10 11 10 9 11 16 13 12 11 8 7 6 5 5 4 4 4
9 10 10 12 11 11 11 12 11 11 8 7 8 8 8 10 9 9 7 7 6 5 6 7 12 10 9 9 9 9 9 9 10 11 15 12 11 8 7 6 5 5 4 4 4
11 11 9 11 11 11 13 12 11 10 10 10 10 8 7 9 8 10 8 7 8 6 7 7 13 10 11 9 9 10 9 9 9 9 10 9 10 6 5 5 5 6 6 5 4
8 8 10 11 12 12 12 12 12 10 9 9 8 8 9 8 6 5 5 5 6 8 9 10 11 13 14 10 10 13 10 9 9 8 8 11 8 6 6 7 6 6 5 5 4